Cosmos 1766 - Orbit

View from above orbital plane
View from above orbital plane
View from above satellite
View from above satellite

Ground track
Ground track

The orbit data is extracted from the following two-line orbital elements,

1 16881U 86055A   13140.16310865  .00003360  00000-0  24624-3 0  5930
2 16881 082.5133 033.7154 0014803 112.9430 247.3360 15.03155972457129
Epoch (UTC): 20 May 2013 03:54:52
Eccentricity: 0.0014803
inclination: 82.5133°
perigee height: 547 km
apogee height: 567 km
right ascension of ascending node: 33.7154°
argument of perigee: 112.9430°
revolutions per day: 15.03155972
mean anomaly at epoch: 247.3360°
orbit number at epoch: 45712

The dashed part of the orbit path shows where the satellite is in the earth's shadow,  

Developed and maintained by Chris Peat, Heavens-Above GmbH. Please read the updated FAQ before sending e-mail. Imprint. DLR